Simultaneous Nadir Overpasses (SNOs) Predictions

Prediction of SNOs between AQUA and NPP Satellite Orbit:

Table of predicted SNOs for the next 14.0 days since TLE Epoch: 2/12/2016
Index Date (AQUA) Time (AQUA) Lat,Lon (AQUA) SZA (AQUA ) Date (NPP) Time (NPP) Lat,Lon (NPP) SZA (NPP ) Distance(km) Time Diff (sec)
1 02/12/2016 20:59:54 74.02, 99.05 113.46 02/12/2016 20:59:11 74.01, 98.98 113.52 2.44 43
2 02/12/2016 21:48:46 -75.81, -88.64 68.53 02/12/2016 21:49:19 -75.82, -88.59 68.57 1.55 33
3 02/15/2016 13:16:14 74.69,-143.48 111.85 02/15/2016 13:15:49 74.69,-143.48 111.87 0.13 25
4 02/15/2016 14:05:17 -75.91, 27.54 69.54 02/15/2016 14:06:09 -75.91, 27.49 69.57 1.28 52
5 02/18/2016 04:50:47 -49.41, 140.88 44.91 02/18/2016 04:49:35 -49.62, 139.57 44.35 97.64 72
6 02/18/2016 05:32:39 75.02, -26.76 110.57 02/18/2016 05:32:33 75.01, -26.79 110.58 1.02 6
7 02/18/2016 06:21:43 -76.18, 144.25 70.76 02/18/2016 06:22:54 -76.18, 144.19 70.81 1.74 71
8 02/20/2016 21:00:01 -74.23, -80.48 69.51 02/20/2016 20:58:57 -74.24, -80.42 69.46 2.01 64
9 02/20/2016 21:49:01 75.52, 90.49 109.07 02/20/2016 21:49:14 75.52, 90.50 109.05 0.43 13
10 02/23/2016 13:16:28 -74.47, 35.95 70.73 02/23/2016 13:15:44 -74.47, 35.95 70.69 0.05 44
11 02/23/2016 14:05:29 75.69,-153.14 107.90 02/23/2016 14:06:02 75.69,-153.19 107.88 1.47 33
12 02/26/2016 05:32:50 -74.93, 152.97 72.22 02/26/2016 05:32:26 -74.93, 152.98 72.20 0.39 24




NCC Satellite Simultaneous Nadir Overpasses (SNOs) Prediction Service
